FW0527 Weather Reports


time (UTC)temp
C
wind
direction
speed
KPH
gust
KPH
rain 1hr
cm
rain 24hr
cm
rain mn
cm
humidity
%
barometer
mb
20260901183115 28 302 0.0 20.9 0.00 0.00 0.00 23 1014.3
20260901181551 28 296 0.0 17.7 0.00 0.00 0.00 21 1014.2
20260901180049 28 309 0.0 14.5 0.00 0.00 0.00 20 1014.1
20260901174547 28 311 1.6 17.7 0.00 0.00 0.00 19 1014.1
20260901173055 27 320 0.0 17.7 0.00 0.00 0.00 19 1014.2
20260901171552 27 315 0.0 6.4 0.00 0.00 0.00 17 1013.9
20260901170051 26 252 0.0 16.1 0.00 0.00 0.00 17 1013.9
20260901164535 26 314 0.0 0.0 0.00 0.00 0.00 20 1013.8
20260901163041 25 283 0.0 0.0 0.00 0.00 0.00 21 1013.6
20260901161529 23 244 0.0 0.0 0.00 0.00 0.00 20 1013.8
20260901160022 22 317 0.0 0.0 0.00 0.00 0.00 24 1013.1
20260901154518 19 301 0.0 0.0 0.00 0.00 0.00 25 1013.2
20260901153013 17 98 0.0 0.0 0.00 0.00 0.00 31 1013.2
20260901151512 15 93 0.0 0.0 0.00 0.00 0.00 34 1013.2
20260901150010 15 30 0.0 0.0 0.00 0.00 0.00 37 1013.2
20260901144510 14 30 0.0 0.0 0.00 0.00 0.00 39 1013.1
20260901143012 13 30 0.0 0.0 0.00 0.00 0.00 39 1013.2
20260901141507 12 30 0.0 0.0 0.00 0.00 0.00 39 1013.0
20260901140010 12 30 0.0 0.0 0.00 0.00 0.00 40 1012.9
20260901134509 12 30 0.0 0.0 0.00 0.00 0.00 41 1012.9
20260901133004 12 30 0.0 0.0 0.00 0.00 0.00 40 1012.9
20260901131502 12 30 0.0 0.0 0.00 0.00 0.00 41 1012.6
20260901130002 12 30 0.0 0.0 0.00 0.00 0.00 40 1012.7
20260901124601 12 30 0.0 0.0 0.00 0.00 0.00 41 1012.6
20260901123059 12 30 0.0 0.0 0.00 0.00 0.00 42 1012.5
20260901121603 12 29 0.0 0.0 0.00 0.00 0.00 44 1012.4
20260901120105 12 30 0.0 0.0 0.00 0.00 0.00 47 1012.4
20260901114557 12 30 0.0 0.0 0.00 0.00 0.00 48 1012.2
20260901113052 12 30 0.0 0.0 0.00 0.00 0.00 49 1012.1
20260901111557 12 29 0.0 0.0 0.00 0.00 0.00 49 1011.9
20260901110052 12 30 0.0 0.0 0.00 0.00 0.00 50 1011.9
20260901104547 12 29 0.0 0.0 0.00 0.00 0.00 52 1011.8
20260901103054 12 30 0.0 0.0 0.00 0.00 0.00 51 1011.9
20260901101547 12 30 0.0 0.0 0.00 0.00 0.00 52 1011.9
20260901100049 12 30 0.0 0.0 0.00 0.00 0.00 52 1012.0
20260901094540 12 30 0.0 0.0 0.00 0.00 0.00 52 1012.2
20260901093038 12 30 0.0 0.0 0.00 0.00 0.00 53 1012.1
20260901091536 13 30 0.0 0.0 0.00 0.00 0.00 50 1012.2
20260901090033 13 30 0.0 0.0 0.00 0.00 0.00 49 1012.2
20260901084532 13 30 0.0 0.0 0.00 0.00 0.00 48 1012.2
20260901083029 13 30 0.0 0.0 0.00 0.00 0.00 47 1012.2
20260901081526 13 30 0.0 0.0 0.00 0.00 0.00 46 1012.2
20260901080025 13 30 0.0 0.0 0.00 0.00 0.00 46 1012.4
20260901074523 14 30 0.0 0.0 0.00 0.00 0.00 47 1012.3
20260901073019 14 30 0.0 0.0 0.00 0.00 0.00 51 1012.2
20260901071516 14 30 0.0 0.0 0.00 0.00 0.00 60 1012.4
20260901070015 17 11 0.0 0.0 0.00 0.00 0.00 54 1012.4
20260901064515 16 80 0.0 0.0 0.00 0.00 0.00 59 1012.2
20260901063019 16 78 0.0 0.0 0.00 0.00 0.00 62 1012.4
20260901061511 16 71 0.0 1.6 0.00 0.00 0.00 61 1012.4
20260901060030 16 70 0.0 0.0 0.00 0.00 0.00 62 1012.6
20260901054511 16 94 0.0 1.6 0.00 0.00 0.00 63 1012.5
20260901053009 15 319 0.0 0.0 0.00 0.00 0.00 63 1012.5
20260901051508 16 319 0.0 0.0 0.00 0.00 0.00 64 1012.4
20260901050008 16 318 0.0 0.0 0.00 0.00 0.00 63 1012.4
20260901044507 16 318 0.0 0.0 0.00 0.00 0.00 63 1012.3
20260901043006 16 318 0.0 0.0 0.00 0.00 0.00 61 1012.4
20260901041505 16 318 0.0 0.0 0.00 0.00 0.00 60 1012.2
20260901040005 17 318 0.0 0.0 0.00 0.00 0.00 58 1012.3
20260901034503 17 318 0.0 0.0 0.00 0.00 0.00 56 1012.3
20260901033001 18 318 0.0 0.0 0.00 0.00 0.00 54 1011.9
20260901031600 19 317 0.0 0.0 0.00 0.00 0.00 51 1011.7
20260901030107 20 318 0.0 0.0 0.00 0.00 0.00 50 1011.5
20260901024600 21 315 0.0 0.0 0.00 0.00 0.00 48 1011.3
20260901023102 21 315 0.0 0.0 0.00 0.00 0.00 47 1010.9
20260901021556 22 315 0.0 0.0 0.00 0.00 0.00 47 1011.0
20260901020057 22 315 0.0 0.0 0.00 0.00 0.00 46 1010.7
20260901014554 22 303 0.0 3.2 0.00 0.00 0.00 44 1010.6
20260901013059 23 295 0.0 8.0 0.00 0.00 0.00 43 1010.5
20260901011553 23 291 0.0 8.0 0.00 0.00 0.00 41 1010.6
20260901010107 24 291 0.0 17.7 0.00 0.00 0.00 40 1010.7
20260901004552 25 311 0.0 16.1 0.00 0.00 0.00 40 1010.6
20260901003052 25 267 0.0 12.9 0.00 0.00 0.00 42 1010.5
20260901001551 25 306 0.0 19.3 0.00 0.00 0.00 42 1010.7
20260901000051 26 294 0.0 19.3 0.00 0.00 0.00 42 1010.8
20260831234549 26 284 0.0 12.9 0.00 0.00 0.00 42 1010.8
20260831233048 26 306 4.8 19.3 0.00 0.00 0.00 41 1010.7
20260831231546 26 226 0.0 19.3 0.00 0.00 0.00 41 1010.6
20260831230058 27 307 0.0 17.7 0.00 0.00 0.00 40 1010.9
20260831224543 27 350 0.0 20.9 0.00 0.00 0.00 38 1010.9
20260831223041 28 272 0.0 16.1 0.00 0.00 0.00 36 1011.0
20260831221545 28 314 0.0 1.6 0.00 0.00 0.00 34 1011.1
20260831220038 29 300 0.0 17.7 0.00 0.00 0.00 33 1011.3
20260831214542 29 300 3.2 16.1 0.00 0.00 0.00 32 1011.1
20260831213039 30 300 0.0 19.3 0.00 0.00 0.00 32 1011.3
20260831211534 30 323 1.6 16.1 0.00 0.00 0.00 30 1011.5
20260831210031 31 303 0.0 11.3 0.00 0.00 0.00 29 1011.3
20260831204530 31 305 0.0 20.9 0.00 0.00 0.00 29 1011.4
20260831203027 31 337 0.0 16.1 0.00 0.00 0.00 28 1011.6
20260831201529 31 318 4.8 20.9 0.00 0.00 0.00 27 1011.7
20260831200024 31 319 0.0 19.3 0.00 0.00 0.00 27 1011.6
20260831194521 30 308 0.0 17.7 0.00 0.00 0.00 27 1011.7
20260831193031 30 321 6.4 25.7 0.00 0.00 0.00 28 1011.9
20260831191518 30 286 0.0 17.7 0.00 0.00 0.00 28 1012.1
20260831190017 30 294 4.8 24.1 0.00 0.00 0.00 28 1012.1
20260831184512 30 290 1.6 19.3 0.00 0.00 0.00 27 1012.3